www.pogodaiklimat.ru

Погода и климат >> Архив погоды >> Парагвай >> Paraguari


ПОГОДА в Paraguari

  • Прогноз погоды в Paraguari
  • Монитор погоды в Paraguari
  • Климат города

АРХИВ ПОГОДЫ в Paraguari

Время (UTC), дата Ветер
(напр.,м/с)
 
Видим.   Явления Облачность Т
(С)
Тd
(С)
f
(%)
Тe
(С)
Тes
(С)
Комфортность P
(гПа)
Po
(гПа)
Тmin
(С)
Tmax
(С)
R
(мм)
R24
(мм)
S
(см)
00 12.08 штиль 0 20 км ясно +15.0 +9.1 68 +15 +15 1019.3 1005.3 +24.0
03 12.08 штиль 0 20 км ясно +11.8 +8.1 78 +11 +11 1019.9 1005.8
06 12.08 штиль 0 20 км ясно +9.8 +8.1 89 +9 +9 1020.7 1006.5
09 12.08 штиль 0 20 км ясно +6.8 +5.5 91 +6 +6 1021.6 1007.2
12 12.08 штиль 0 20 км ясно +12.4 +9.8 84 +12 +16 1021.6 1007.5 +6.8
15 12.08 С 1 20 км ясно +19.8 +8.9 49 +22 +37 комфорт 1019.4 1005.7
18 12.08 С 1 20 км ясно +27.8 +10.4 34 +28 +39 жарко 1017.1 1003.8
21 12.08 штиль 0 20 км ясно +24.4 +10.9 43 +26 +26 жарко 1015.8 1002.3
00 13.08 штиль 0 20 км ясно +21.8 +13.8 60 +25 +25 комфорт 1015.0 1001.5 +30.0
06 13.08 штиль 0 20 км ясно +18.8 +13.7 72 +20 +20 1015.3 1001.6
09 13.08 штиль 0 20 км ясно +17.4 +13.4 77 +17 +17 1015.7 1001.9
12 13.08 С 4 20 км ясно +21.8 +13.3 58 +24 +26 комфорт 1016.1 1002.6 +12.4
15 13.08 С 3 20 км ясно +28.4 +18.2 54 +33 +43 очень
душно
1015.8 1002.5
18 13.08 С 4 20 км ясно +31.8 +16.0 39 +35 +40 очень
душно
1013.5 1000.4
21 13.08 С 2 20 км ясно +29.8 +13.7 37 +31 +32 жарко 1011.2 998.1
00 14.08 С 2 20 км ясно +26.6 +13.6 45 +29 +29 жарко 1011.6 998.3 +31.8
03 14.08 штиль 0 20 км ясно +23.8 +15.9 61 +27 +27 жарко 1012.2 998.8
06 14.08 штиль 0 20 км ясно +19.8 +15.0 74 +22 +22 комфорт 1012.9 999.2
09 14.08 штиль 0 20 км ясно +17.6 +14.5 82 +18 +18 1013.4 999.7
12 14.08 штиль 0 20 км ясно +19.6 +12.9 65 +21 +25 комфорт 1014.9 1001.3 +16.4
15 14.08 Ю 1 20 км 10/0 1500 м
[Ac und]
+18.4 +16.2 87 +20 +25 1019.3 1005.5
18 14.08 Ю 3 20 км 10/10 360 м
[Sc]
+17.8 +16.2 90 +18 +18 1018.3 1004.6
21 14.08 штиль 0 20 км 10/10 360 м
[Sc]
+18.0 +16.2 89 +18 +18 1017.9 1004.2
00 15.08 штиль 0 20 км 10/10 360 м
[Sc]
+17.4 +15.3 87 +17 +17 1018.1 1004.3 +26.6
03 15.08 штиль 0 20 км 10/10 360 м
[Sc]
+17.2 +15.3 89 +17 +17 1018.5 1004.7
06 15.08 штиль 0 20 км 10/10 360 м
[Sc]
+16.8 +15.4 91 +17 +17 1019.0 1005.1
09 15.08 штиль 0 20 км 10/10 300 м
[Sc]
+15.6 +14.5 93 +15 +15 1019.4 1005.5
12 15.08 штиль 0 20 км 8/8 1500 м
[Cb calv Ac und]
+13.8 +12.3 91 +13 +14 1020.6 1006.6 +13.8
15 15.08 штиль 0 20 км 5/0 1500 м
[Ac und]
+17.6 +11.3 67 +18 +29 1020.7 1006.9
18 15.08 Ю 1 20 км 5/0 1500 м
[Ac und]
+21.6 +9.7 47 +23 +30 комфорт 1020.2 1006.6
21 15.08 Ю 1 20 км 5/0 1500 м
[Ac und]
+19.4 +9.5 53 +21 +22 комфорт 1019.6 1005.8
00 16.08 штиль 0 20 км ясно +16.0 +10.3 69 +16 +16 1020.3 1006.4 +23.0
06 16.08 штиль 0 20 км ясно +12.0 +10.4 90 +11 +11 1020.5 1006.4
09 16.08 штиль 0 20 км ясно +10.0 +7.9 87 +9 +9 1020.6 1006.4
12 16.08 штиль 0 20 км 4/0 2000 м
[Ac trans]
+12.4 +11.6 95 +12 +15 1021.9 1007.8 +10.0
15 16.08 штиль 0 20 км ясно +22.0 +13.3 58 +25 +42 комфорт 1022.3 1008.7
18 16.08 ЮЗ 2 20 км 4/0 1500 м
[Ac und]
+24.4 +11.2 44 +26 +32 жарко 1020.5 1007.0
21 16.08 штиль 0 20 км 5/0 2000 м
[Ac und]
+26.0 +16.2 55 +29 +30 душно 1018.4 1005.0
00 17.08 штиль 0 20 км ясно +19.0 +15.6 81 +20 +20 1019.8 1006.0 +27.0
09 17.08 штиль 0 20 км ясно +14.4 +13.7 96 +14 +14 1020.0 1006.0
15 17.08 ЮЗ 3 20 км ясно +24.8 +13.1 48 +27 +37 жарко 1020.9 1007.4
18 17.08 В 2 20 км ясно +27.0 +15.5 49 +30 +39 душно 1019.4 1006.0
21 17.08 штиль 0 20 км ясно +27.0 +13.5 43 +29 +29 жарко 1017.1 1003.8
00 18.08 В 3 20 км ясно +22.4 +15.3 64 +26 +26 жарко 1018.6 1005.0 +28.6
03 18.08 штиль 0 20 км ясно +20.0 +16.7 81 +22 +22 комфорт 1019.3 1005.6
09 18.08 В 4 20 км ясно +19.0 +13.7 71 +20 +20 1016.7 1003.0
12 18.08 С 5 20 км 5/0 2000 м
[Ac trans]
+24.0 +13.8 53 +26 +28 жарко 1017.1 1003.6 +17.0
15 18.08 СВ 4 20 км 4/0 2000 м
[Ac trans]
+26.0 +16.2 55 +29 +36 душно 1018.4 1005.0
18 18.08 С 4 20 км 4/0 2000 м
[Ac trans]
+30.0 +15.4 41 +33 +37 душно 1015.2 1002.0
21 18.08 С 3 20 км 4/0 2000 м
[Ac und]
+29.0 +14.0 40 +31 +31 жарко 1013.4 1000.2

 

Местоположение метеостанции Paraguari (Парагвай): широта -25.63 долгота -57.13 высота над уровнем моря 116 м.

В архиве по умолчанию представлена погода в Paraguari за последнюю неделю. Архивные данные за месяц целиком и за предыдущие месяцы, начиная с января 2011 года, Вы можете получить, выбрав интересующий диапазон дат из раскрывающегося списка и нажав кнопку "Ввод!".


*Определитесь, кто Вы:
робот инопланетянин человек

Внимание! Время в таблицах - всемирное. Для получения местного времени необходимо прибавить поправку, которая в Paraguari равна -4 ч.

Смотрите также архив погоды в соседних городах и на ближайших метеорологических станциях:

Погода в Asuncion (Парагвай) (57 км)
Погода в Quyquyhat (Парагвай) (67 км)
Погода в Villarrica (Парагвай) (71 км)
Погода в Coronel Oviedo (Парагвай) (80 км)
Погода в Caazapa (Парагвай) (99 км)
Погода в San Juan Bautista Misiones (Парагвай) (115 км)
Погода в Formosa (Аргентина) (127 км)
Погода в San Estanislao (Парагвай) (130 км)
Погода в San Pedro (Парагвай) (175 км)
Погода в Pilar (Парагвай) (180 км)

Пояснения к столбцам:

Ветер - указаны скорость ветра в м/с - средняя за 10 мин, порывы в срок и между сроками (в фигурных скобках) и направление, откуда дует ветер: С - северный, СВ - северо-восточный, В - восточный, ЮВ - юго-восточный, Ю - южный, ЮЗ - юго-западный, З - западный, СЗ - северо-западный.
Видимость - горизонтальная дальность видимости в метрах или километрах. При видимости от 1 до 10 км при отсутствии осадков обычно наблюдается дымка, при ухудшении видимости до 1 км и менее - туман. В сухую погоду видимость может ухудшаться дымом, пылью или мглою.
Явления - указаны атмосферные явления, наблюдавшиеся в срок или в последний час перед сроком; фигурными скобками обозначены явления, наблюдавшиеся между сроками (за 1-3 часа до срока); квадратными скобками обозначены град или гололедные отложения с указанием их диаметра в мм.
Облачность - указаны через наклонную черту общая и нижняя облачность в баллах и высота нижней границы облаков в метрах; квадратными скобками обозначены формы облаков: Ci - перистые, Cs - перисто-слоистые, Cc - перисто-кучевые, Ac - высококучевые, As - высокослоистые, Sc - слоисто-кучевые, Ns - слоисто-дождевые, Cu - кучевые, Cb - кучево-дождевые. Подробнее классификацию облаков см. в Атласе облаков (PDF).
T - Температура воздуха - температура, измеренная на высоте 2 м над землей.
Td - Температура точки росы - температура, при понижении до которой содержащийся в воздухе водяной пар достигнет насыщения.
f - Относительная влажность воздуха - влажноcть воздуха, измеренная на высоте 2 м над землей.
Te - Эффективная температура - температура, которую ощущает одетый по сезону человек в тени. Характеристика душности погоды. При расчете учитывается влияние влажности воздуха и скорости ветра на теплоощущения человека.
Tes - Эффективная температура на солнце - температура, которую ощущает человек, с поправкой на солнечный нагрев. Характеристика знойности погоды. Зависит от высоты солнца над горизонтом, облачности и скорости ветра. Ночью, в пасмурную погоду, а также при ветре 12 м/с и более поправка равна нулю.
P - Атмосферное давление - приведенное к уровню моря атмосферное давление.
Po - Атмосферное давление - измеренное на уровне метеостанции атмосферное давление.
Tmin - Минимальная температура - минимум температуры воздуха на высоте 2 м над землей.
Tmax - Максимальная температура - максимум температуры воздуха на высоте 2 м над землей.
R - Количество осадков - Количество выпавших осадков за период времени, мм. При наведении курсора мыши на число - период времени, за который выпало указанное количество осадков.
R24 - Количество осадков - Количество выпавших осадков за 24 часа, мм.
S - Снежный покров - Высота снежного покрова, см. При наведении курсора мыши на число - состояние снежного покрова и степень покрытия местности в баллах.